Location: Bu�n Treun
(12.1333°N, 108.3167°E)
Time: 12:56:02
(UTC+00:00)

OAO 3 Rocket - Pass Details

Date: 13 July 2020
Orbit: 629 x 683 km, 35.0° (Epoch: 06 August)

Event Time Altitude Azimuth Distance (km) Brightness Sun altitude
Rises 13:27:54 0° 312° (NW) 2,976 7.7 -29.5°
Reaches altitude 10° 13:30:18 10° 317° (NW) 2,073 6.6 -29.9°
Enters shadow 13:33:29 37° 342° (NNW) 1,037 4.5 -30.6°
